Temperature
19 19 19 19 20 20 20 20 20 20 20 20 20 20 20 20 20 20 20 20 20 20 20 19 19 19 19 19 19 19 19 19 19 19 19 19 19 19 19 19 19 19 18
20 20 20 20 20 20 20 20 20 20 20 20 20 20 20 20 20 20 20 20 20 20 20 20 19 19 19 19 19 19 19 19 19 19 19 19 19 19 19 19 19 19 18
20 20 20 20 20 20 20 20 20 20 20 20 20 20 20 20 20 20 20 20 20 20 20 20 19 19 19 19 19 19 19 19 19 19 19 19 19 19 19 19 19 18 18
20 20 20 20 20 20 20 20 20 20 20 20 20 20 20 20 20 20 20 20 20 20 20 20 19 19 19 19 19 19 19 19 19 19 19 19 19 19 19 19 19 19 18
21 20 20 20 20 20 20 20 20 20 20 20 20 20 20 20 20 20 20 20 20 20 19 19 19 19 19 19 19 19 19 19 19 19 19 19 19 19 19 19 19 19 18
21 20 20 20 20 20 20 19 19 19 19 20 20 20 20 20 20 20 20 20 20 20 19 19 19 19 19 19 19 19 19 19 19 19 19 19 19 19 19 19 19 18 18
21 20 20 20 20 20 19 19 19 19 19 19 19 19 19 19 20 20 19 19 19 19 19 19 19 19 19 19 19 18 18 18 18 19 19 19 19 19 19 19 18 18 18
21 21 20 20 20 20 20 19 19 19 19 19 19 19 19 19 19 19 19 19 19 19 19 19 19 19 19 19 18 18 18 18 18 18 18 18 18 19 19 19 18 18 18
21 21 21 20 20 20 20 19 19 19 19 19 19 19 19 19 19 19 19 19 19 19 19 19 19 19 19 19 18 18 18 18 18 18 18 18 18 18 18 18 18 18 18
21 21 21 21 20 20 20 20 19 19 19 19 19 19 19 19 19 19 19 19 19 19 19 19 19 19 19 19 18 18 18 18 18 18 18 18 18 18 18 18 18 18 18
21 21 21 21 21 20 20 20 19 19 19 19 19 19 19 19 19 19 19 19 19 19 19 19 19 19 19 19 18 18 18 18 18 18 18 18 18 18 18 18 18 18 18
21 21 21 21 21 20 20 20 19 19 19 19 19 19 19 18 18 18 18 19 19 19 19 19 19 19 19 18 18 18 18 18 18 17 17 18 18 18 18 18 18 18 18
22 21 21 21 21 21 20 20 20 19 19 19 19 19 18 18 18 18 18 18 19 19 19 19 18 18 18 18 18 18 18 18 18 17 17 18 18 18 18 18 18 18 18
22 22 22 21 21 21 21 20 20 19 19 19 19 19 18 18 18 18 18 18 18 19 19 18 18 18 18 18 18 18 18 18 18 17 18 18 18 18 18 18 18 18 18
22 22 22 22 21 21 21 20 20 20 19 19 19 19 18 18 18 18 18 18 18 18 18 18 18 18 18 18 18 18 18 18 18 18 18 18 18 18 18 18 18 18 18
22 22 22 22 21 21 21 21 20 20 20 19 19 19 19 18 18 18 18 18 18 18 18 18 18 18 18 18 18 18 18 18 18 18 18 18 18 18 18 18 18 18 18
22 22 22 22 21 21 21 21 21 20 20 20 19 19 19 18 18 18 18 18 18 18 18 18 18 18 18 18 18 18 18 18 18 18 18 17 17 18 18 18 18 18 18
21 21 21 21 21 21 21 21 21 20 20 20 20 19 19 19 18 18 18 18 18 18 18 18 18 18 18 18 18 18 18 18 18 18 18 17 17 17 17 18 18 17 17
20 20 20 21 21 21 21 21 21 20 20 20 20 19 19 19 19 18 19 19 19 18 18 18 18 18 18 18 18 18 18 18 18 18 18 17 17 17 17 17 18 18 17
19 20 20 20 20 20 21 21 20 20 20 20 20 19 19 19 19 19 19 19 19 18 18 18 18 18 18 18 18 18 18 18 18 18 17 17 17 17 17 17 17 17 17
19 19 19 20 20 20 20 20 20 20 20 20 20 19 19 19 19 19 19 19 19 18 18 18 18 18 18 18 18 18 18 18 18 18 17 17 17 17 17 17 17 17 17
18 18 19 19 19 19 20 20 20 20 20 20 20 19 19 19 19 19 19 19 19 18 18 18 18 18 18 18 17 17 17 17 17 18 17 17 17 17 17 17 17 17 17
17 17 18 18 19 19 19 19 19 19 19 19 19 19 19 18 18 18 18 18 18 18 18 18 18 18 18 17 17 17 17 17 17 18 18 17 17 17 17 17 17 17 17
16 16 17 17 18 19 19 19 19 19 19 19 19 18 18 18 18 18 18 18 18 18 18 18 17 17 17 17 17 17 17 17 17 17 17 17 17 17 17 17 17 17 17
15 15 16 16 17 18 18 19 19 19 19 19 18 18 18 17 17 17 17 17 17 17 17 17 17 17 17 17 17 16 16 16 16 16 16 17 17 17 17 17 17 17 17
14 14 15 15 16 16 17 17 18 18 18 18 18 18 17 17 17 17 16 16 16 17 17 16 16 16 16 16 16 16 16 16 16 16 16 16 16 17 17 17 17 17 17
Wind_Speed
8 12 17 16 16 16 16 16 16 15 15 15 14 14 14 13 13 13 13 13 13 12 12 11 10 10 10 9 9 10 10 10 10 10 10 11 11 11 11 11 9 7 8
11 16 18 17 16 16 16 16 16 15 15 14 14 14 13 13 12 12 12 12 12 12 12 11 11 10 10 9 9 9 9 9 9 9 9 10 11 11 11 11 10 8 9
15 16 18 18 17 16 16 16 15 15 14 14 14 13 13 13 12 12 11 11 11 11 11 11 10 10 10 9 8 8 8 8 7 7 8 8 9 11 11 10 10 10 9
16 17 17 18 17 16 15 15 15 15 14 14 13 13 13 12 12 11 11 11 11 10 10 10 10 9 9 8 7 7 7 7 7 7 7 6 7 9 10 10 10 10 9
15 16 17 19 17 16 15 15 15 14 14 13 13 12 12 12 11 11 11 11 11 10 10 9 8 8 7 6 6 5 5 6 6 7 8 7 7 8 9 9 9 9 9
14 16 18 18 17 16 15 15 15 14 14 13 13 12 11 11 11 10 10 10 10 10 9 9 8 7 6 5 4 4 4 4 5 7 7 6 6 7 8 7 8 8 9
13 15 17 18 17 16 15 15 15 14 14 13 13 12 11 11 10 10 10 10 10 10 9 8 7 6 5 4 3 3 4 4 4 7 7 6 5 6 6 6 7 7 8
16 14 16 18 17 16 15 15 15 15 14 14 13 12 11 11 10 10 10 9 9 8 8 7 6 5 4 3 2 3 5 6 5 8 7 5 5 6 5 6 6 7 7
14 13 14 16 16 16 15 15 15 15 15 14 13 13 12 11 10 10 10 9 8 7 6 5 4 4 3 1 0 2 5 6 6 8 6 5 6 5 5 5 5 5 6
12 12 11 14 15 14 15 15 15 15 15 15 14 13 13 12 11 11 10 9 8 7 6 5 4 3 2 2 2 2 5 6 9 9 7 6 6 6 5 5 5 5 5
12 11 11 11 13 14 14 15 16 16 16 15 15 15 13 12 11 11 11 10 9 8 7 6 5 4 4 4 5 4 3 5 8 7 7 7 7 6 6 5 5 5 5
15 14 12 12 12 13 14 14 13 14 14 14 14 14 13 12 12 11 12 12 11 9 8 7 7 6 6 6 7 5 1 4 8 7 7 8 7 7 6 5 5 5 5
17 16 15 14 12 12 9 11 11 11 12 13 14 15 13 12 11 11 10 11 10 10 8 7 7 7 7 7 6 4 2 5 9 8 8 9 7 7 6 5 5 5 5
16 17 16 16 13 13 11 10 10 9 9 10 14 15 12 8 7 8 8 10 9 9 8 7 6 8 8 9 8 5 3 6 10 9 9 9 7 7 6 5 5 5 5
14 15 16 17 16 13 11 9 10 9 10 12 14 15 15 8 6 7 7 9 10 10 8 6 6 6 6 7 7 6 6 9 11 10 9 9 8 7 6 6 5 5 5
9 12 14 16 16 14 13 11 10 11 12 13 13 16 17 13 9 8 6 7 9 11 10 8 6 5 4 4 3 5 8 11 11 11 10 9 8 7 7 6 6 6 6
0 3 8 13 13 15 14 13 10 11 12 10 12 16 17 15 13 10 8 8 9 12 11 7 5 4 3 4 5 5 7 9 10 11 10 9 8 8 7 7 7 6 6
7 5 3 6 9 12 12 12 9 10 10 10 13 14 16 16 15 10 8 9 11 11 7 4 4 3 3 3 3 3 4 5 8 10 11 10 9 8 8 8 8 7 7
10 9 7 5 2 7 9 10 9 8 9 9 11 11 14 16 15 10 7 7 10 6 5 5 3 3 3 3 3 2 3 4 4 7 7 10 11 10 10 9 9 9 8
10 10 9 8 7 4 4 5 5 7 8 7 8 9 12 13 14 11 6 7 7 5 5 4 4 3 3 3 2 2 1 2 2 4 6 9 11 12 12 10 10 9 9
12 11 10 9 8 4 2 3 5 6 6 6 7 8 10 11 12 10 7 7 6 6 6 6 4 4 2 2 3 2 2 2 2 3 4 5 7 11 12 12 11 10 9
12 12 11 10 8 6 3 3 3 4 4 5 4 5 7 8 10 9 9 7 7 6 6 5 5 4 2 2 3 3 1 4 3 2 3 5 6 7 9 12 12 12 11
13 12 11 10 9 8 6 3 1 1 0 2 3 4 4 5 6 6 6 6 6 6 5 5 5 6 4 2 2 4 4 4 3 3 2 3 5 6 6 9 12 14 14
13 11 10 10 9 8 7 3 4 5 6 6 5 4 3 3 4 6 5 5 5 4 5 5 5 4 5 3 2 2 2 3 3 2 3 2 2 5 6 6 8 13 15
12 11 10 10 10 9 8 5 3 4 5 4 5 6 5 3 3 4 5 5 6 5 5 5 5 5 4 4 4 2 2 2 2 3 3 3 2 3 4 5 5 9 15
11 10 10 9 9 9 9 7 4 1 4 6 6 6 5 4 4 4 5 4 4 4 4 5 5 5 4 4 4 4 4 3 3 4 5 4 3 4 3 4 4 6 12
Wind_Direction
154 161 151 143 136 132 130 128 125 121 118 114 111 108 105 103 101 100 99 98 99 99 100 102 105 107 108 106 102 98 97 93 88 84 80 75 70 65 65 75 81 87 100
152 157 151 145 138 134 132 131 128 125 123 120 117 114 112 110 108 106 105 104 103 101 100 101 103 106 108 106 105 102 98 92 89 87 81 74 72 70 69 73 78 88 97
148 153 150 147 141 137 135 133 131 129 126 124 121 119 117 116 114 112 110 108 106 104 102 101 102 105 108 108 107 104 98 92 86 86 86 77 73 73 72 71 75 84 91
147 150 151 149 145 142 139 137 135 132 130 127 125 123 121 120 118 117 116 114 110 106 104 101 100 103 106 106 103 97 92 80 71 86 100 89 75 78 75 72 75 80 87
146 150 154 152 149 147 144 142 140 137 135 133 131 128 126 124 123 122 121 120 116 113 109 105 102 103 104 104 99 90 81 68 72 92 104 95 84 84 79 75 75 80 87
146 150 156 155 154 153 151 149 146 144 141 139 137 135 132 131 129 127 125 123 122 119 116 113 108 109 110 109 100 85 73 63 76 113 117 107 99 95 89 84 83 81 85
146 152 159 159 159 159 158 157 154 151 149 146 145 143 141 138 134 131 128 126 125 123 121 117 114 115 117 111 94 69 51 43 101 128 130 125 118 109 102 94 94 88 84
150 156 161 163 164 165 164 162 161 159 156 153 152 151 150 147 143 140 136 132 130 129 127 123 120 123 125 115 88 49 38 39 112 135 137 136 133 122 118 113 107 100 89
154 157 160 166 169 170 169 168 167 165 163 161 159 159 158 157 155 153 150 147 145 144 143 140 140 141 145 151 45 23 35 50 127 142 139 140 138 131 125 118 113 110 104
157 162 163 167 170 172 174 175 174 172 171 169 168 168 168 167 167 167 166 166 166 167 167 166 173 186 204 249 294 338 34 70 128 135 135 140 136 134 129 126 126 119 112
166 171 171 171 173 174 176 182 180 179 179 177 177 177 175 175 177 179 181 183 184 186 189 192 203 218 236 264 282 300 42 98 133 140 145 145 140 138 133 133 136 136 128
177 182 181 181 179 178 182 183 182 182 183 182 182 182 179 182 187 191 197 197 197 200 204 210 220 233 245 262 278 296 64 133 149 157 162 154 146 141 138 137 144 148 145
183 184 186 186 184 182 184 178 182 183 183 186 188 188 185 189 199 207 204 207 207 209 215 224 232 242 250 257 268 273 234 174 165 168 168 160 155 150 144 142 145 153 159
184 190 188 188 187 187 184 181 184 184 187 192 197 197 190 192 201 201 200 204 206 211 216 226 231 242 252 257 256 249 223 168 165 166 173 168 163 160 156 154 155 158 166
186 191 191 190 189 188 183 183 186 190 193 197 200 202 196 192 192 190 198 204 211 215 217 222 228 235 241 245 243 223 190 168 168 170 176 175 171 171 171 172 171 172 176
194 196 189 190 190 186 186 187 189 192 194 196 202 205 200 195 191 189 195 203 213 217 218 219 223 222 222 202 178 159 159 163 174 175 177 179 178 178 181 183 184 187 191
299 226 201 193 188 188 190 191 190 193 193 196 203 206 205 200 195 193 197 201 211 217 218 215 220 205 197 169 147 141 147 158 173 180 180 181 183 186 188 190 191 193 198
19 2 320 219 200 195 194 195 194 194 193 198 202 204 207 205 198 190 193 199 204 204 200 190 180 163 174 154 153 155 151 160 174 182 185 186 187 190 196 195 192 192 195
23 12 358 345 261 214 205 200 198 192 194 197 199 200 204 206 200 186 188 192 186 180 179 181 159 155 157 162 175 174 171 177 180 181 186 192 195 195 197 200 195 193 195
21 20 14 4 353 313 242 213 199 196 196 194 196 198 199 198 193 184 180 180 170 161 165 157 143 135 148 158 146 132 213 221 197 185 192 195 199 199 201 201 199 201 201
15 15 10 0 350 346 287 227 204 201 198 198 196 193 191 187 183 177 172 167 161 163 168 157 141 136 137 135 103 54 344 315 254 220 193 183 196 202 202 203 205 206 206
6 6 5 355 343 329 296 249 226 212 198 197 193 189 183 176 172 172 166 165 158 155 157 155 140 138 148 139 131 122 333 326 309 268 205 196 200 199 202 208 208 211 209
2 0 357 346 341 331 315 274 207 173 158 176 184 188 183 169 161 157 165 161 160 159 165 165 154 149 161 172 144 146 161 218 279 313 274 216 199 199 205 205 208 213 212
351 350 348 346 344 340 333 298 218 199 201 196 179 176 151 149 153 151 156 161 159 162 165 175 168 159 156 171 181 179 177 162 167 286 316 304 228 212 214 214 210 211 210
345 347 347 347 351 348 349 340 279 220 206 168 156 159 157 150 146 157 164 164 165 167 174 181 173 167 170 173 175 173 182 196 170 178 257 299 313 258 232 225 210 205 206
343 348 350 351 352 352 357 1 2 205 175 157 164 170 165 157 157 159 155 159 163 169 178 185 183 176 182 182 181 177 176 180 189 184 213 238 261 277 260 235 219 204 201
Height
1535 1537 1539 1540 1542 1543 1544 1544 1545 1546 1547 1547 1548 1548 1549 1549 1550 1550 1551 1551 1552 1553 1553 1554 1554 1555 1555 1556 1556 1557 1557 1558 1558 1558 1558 1557 1557 1557 1556 1556 1555 1555 1554
1533 1536 1539 1541 1542 1543 1544 1545 1546 1546 1547 1548 1548 1549 1549 1550 1550 1551 1551 1552 1552 1553 1554 1554 1555 1555 1556 1557 1557 1558 1559 1559 1559 1559 1559 1559 1558 1558 1557 1557 1557 1556 1556
1534 1536 1539 1541 1542 1544 1545 1546 1546 1547 1548 1548 1549 1550 1550 1551 1551 1552 1552 1552 1553 1553 1554 1555 1555 1556 1557 1557 1558 1559 1559 1560 1560 1560 1560 1560 1560 1559 1559 1558 1558 1558 1557
1534 1536 1539 1541 1543 1544 1545 1546 1547 1548 1548 1549 1550 1550 1551 1552 1552 1552 1553 1553 1553 1554 1554 1555 1556 1556 1557 1558 1559 1559 1560 1561 1561 1561 1561 1561 1561 1561 1560 1560 1559 1559 1559
1535 1537 1539 1541 1543 1544 1545 1546 1547 1548 1549 1550 1550 1551 1552 1552 1553 1553 1553 1554 1554 1554 1555 1555 1556 1557 1557 1558 1559 1560 1561 1561 1562 1562 1562 1562 1562 1562 1562 1561 1561 1560 1560
1535 1537 1539 1541 1543 1544 1546 1547 1547 1548 1549 1550 1551 1552 1552 1553 1553 1554 1554 1554 1555 1555 1555 1556 1556 1557 1558 1559 1560 1560 1561 1562 1562 1563 1563 1563 1563 1563 1563 1562 1562 1562 1562
1536 1538 1540 1541 1543 1544 1545 1547 1547 1548 1549 1550 1551 1552 1553 1553 1554 1554 1555 1555 1555 1555 1556 1556 1557 1557 1558 1559 1560 1561 1562 1562 1563 1563 1563 1563 1564 1564 1563 1563 1563 1563 1563
1536 1538 1540 1542 1543 1544 1545 1546 1547 1548 1549 1550 1551 1552 1553 1553 1554 1555 1555 1555 1556 1556 1556 1557 1557 1558 1559 1559 1560 1561 1562 1563 1563 1563 1564 1564 1564 1564 1564 1564 1564 1564 1564
1537 1539 1540 1542 1543 1544 1545 1546 1547 1548 1549 1550 1551 1552 1553 1553 1554 1554 1555 1555 1555 1556 1556 1557 1557 1558 1559 1560 1561 1562 1563 1563 1564 1564 1565 1565 1565 1564 1564 1564 1565 1565 1565
1538 1539 1540 1541 1542 1544 1545 1546 1547 1548 1549 1550 1551 1552 1552 1553 1554 1554 1555 1555 1555 1556 1556 1557 1558 1559 1560 1560 1561 1562 1563 1564 1564 1565 1565 1565 1565 1565 1565 1565 1565 1565 1566
1537 1538 1539 1540 1542 1543 1544 1545 1546 1547 1548 1549 1550 1551 1552 1553 1554 1554 1555 1555 1555 1556 1556 1557 1558 1559 1560 1561 1562 1563 1563 1564 1565 1565 1565 1565 1565 1565 1565 1565 1565 1566 1566
1535 1537 1538 1539 1540 1541 1542 1544 1545 1546 1547 1548 1549 1550 1551 1552 1553 1554 1554 1555 1555 1556 1556 1557 1558 1559 1560 1561 1562 1563 1564 1564 1565 1565 1565 1565 1565 1564 1565 1565 1565 1566 1566
1532 1534 1536 1537 1539 1540 1541 1542 1543 1544 1545 1547 1548 1549 1550 1551 1552 1553 1554 1554 1555 1555 1556 1557 1558 1560 1561 1562 1562 1563 1564 1564 1565 1565 1565 1564 1564 1564 1564 1565 1565 1566 1566
1530 1532 1534 1535 1537 1538 1539 1540 1542 1543 1544 1545 1546 1547 1549 1550 1551 1552 1553 1554 1555 1556 1557 1558 1559 1560 1561 1561 1562 1563 1563 1564 1564 1565 1564 1564 1563 1563 1563 1564 1565 1565 1566
1529 1530 1531 1533 1534 1535 1537 1538 1540 1541 1542 1543 1545 1546 1547 1548 1550 1551 1552 1554 1555 1556 1557 1558 1559 1559 1560 1561 1561 1562 1562 1563 1564 1564 1564 1563 1563 1563 1563 1563 1564 1565 1565
1528 1528 1529 1530 1531 1533 1534 1536 1537 1539 1540 1541 1542 1544 1545 1546 1548 1549 1551 1553 1554 1555 1557 1558 1558 1559 1560 1561 1561 1561 1562 1563 1564 1564 1564 1563 1563 1562 1563 1563 1563 1564 1564
1528 1528 1528 1528 1529 1530 1531 1533 1535 1536 1537 1539 1540 1542 1543 1544 1546 1547 1549 1551 1553 1554 1555 1557 1558 1559 1559 1560 1561 1561 1562 1562 1563 1563 1563 1563 1563 1563 1562 1563 1563 1563 1564
1526 1527 1527 1528 1528 1528 1529 1530 1531 1533 1534 1536 1537 1539 1540 1542 1544 1545 1547 1549 1551 1552 1554 1555 1556 1557 1559 1560 1560 1561 1562 1562 1562 1563 1563 1563 1563 1562 1562 1562 1562 1562 1563
1524 1524 1525 1525 1525 1526 1526 1527 1528 1530 1531 1533 1534 1536 1537 1539 1541 1543 1545 1546 1548 1550 1552 1553 1554 1556 1557 1558 1559 1560 1560 1561 1561 1561 1562 1562 1562 1562 1562 1562 1562 1562 1562
1524 1523 1522 1522 1522 1523 1524 1524 1526 1526 1527 1529 1530 1532 1534 1536 1537 1539 1542 1544 1546 1547 1549 1551 1552 1554 1555 1556 1557 1558 1559 1560 1560 1560 1560 1561 1561 1561 1561 1561 1561 1561 1561
1523 1521 1519 1519 1518 1519 1519 1520 1521 1521 1523 1524 1526 1527 1529 1531 1533 1535 1538 1540 1542 1544 1546 1548 1549 1551 1552 1554 1555 1556 1557 1557 1558 1558 1559 1559 1559 1560 1560 1560 1561 1561 1561
1521 1519 1517 1516 1515 1515 1515 1515 1517 1517 1518 1520 1522 1524 1525 1527 1529 1531 1533 1536 1538 1541 1543 1544 1545 1547 1549 1551 1552 1553 1554 1556 1555 1556 1556 1556 1557 1558 1558 1559 1559 1559 1560
1520 1518 1515 1514 1512 1511 1511 1511 1512 1513 1514 1514 1517 1519 1521 1523 1525 1527 1530 1532 1534 1537 1539 1540 1542 1543 1545 1547 1548 1550 1550 1550 1552 1553 1553 1553 1554 1555 1556 1556 1557 1557 1558
1520 1517 1514 1511 1509 1507 1506 1506 1507 1507 1507 1509 1511 1513 1516 1518 1520 1523 1525 1528 1531 1533 1535 1537 1538 1539 1541 1542 1544 1545 1547 1548 1549 1549 1550 1550 1551 1552 1553 1553 1554 1555 1555
1519 1516 1513 1510 1507 1504 1503 1502 1502 1502 1503 1504 1506 1508 1510 1512 1515 1518 1520 1523 1525 1528 1531 1532 1534 1535 1536 1538 1539 1540 1541 1543 1544 1546 1546 1547 1548 1549 1550 1550 1551 1551 1552
1518 1515 1512 1508 1505 1503 1500 1498 1498 1498 1499 1500 1502 1504 1506 1508 1510 1512 1514 1518 1521 1524 1526 1528 1530 1531 1532 1533 1534 1535 1537 1538 1539 1541 1542 1543 1544 1545 1546 1547 1547 1548 1549